Find WHDW 14-03

NORAD ID: 66917 Int'l Des: 2025-285 Owner: ZXW Country: CN Constellation: xingwang operational
LEOCIRCULAR

現在のビュー

3D地球を読み込み中...

WHDW 14-03について

説明を読み込み中...

次回通過

Passes for default location (London). Set your location on the main map for personalized predictions.

高度履歴

Loading altitude history...

軌道要素

1 66917U 25285C 26145.60539762 -.00000104 00000-0 44011-4 0 9997
2 66917 50.0022 227.0292 0001065 214.5040 145.5764 13.29325468 23057
Epoch: May 25, 2026 • Age: 15 hours

現在のステータス

高度 1149.6 km
速度 7.28 km/s
衛星直下点 -2.86°S, 75.04°E
打ち上げ日 Dec 6, 2025
運用期間 0.4 years
タイプ other

技術仕様

分類 Payload
質量 700.00 kg
乾燥質量 700.00 kg
総質量 700.00 kg
長さ 3.00 m
直径 1.00 m
スパン 10.00 m
形状 Box + 2 Pan
製造者 CAST
バスタイプ Xingwang C
フェーズステータス In Orbit
所有者/国 ZXW/CN

Most Searched